TimeEDT,TemperatureF,Dew PointF,Humidity,Sea Level PressureIn,VisibilityMPH,Wind Direction,Wind SpeedMPH,Gust SpeedMPH,PrecipitationIn,Events,Conditions,WindDirDegrees,DateUTC
12:15 AM,61.7,61.3,99,29.93,10.0,Calm,Calm,-,N/A,,Overcast,0,2013-09-26 04:15:00
12:35 AM,61.7,61.3,99,29.93,10.0,Calm,Calm,-,N/A,,Overcast,0,2013-09-26 04:35:00
12:55 AM,61.7,61.3,99,29.93,10.0,Calm,Calm,-,N/A,,Overcast,0,2013-09-26 04:55:00
1:15 AM,61.7,61.2,98,29.93,7.0,Calm,Calm,-,N/A,,Overcast,0,2013-09-26 05:15:00
1:35 AM,61.7,61.3,99,29.93,4.0,Calm,Calm,-,N/A,,Overcast,0,2013-09-26 05:35:00
1:55 AM,61.0,60.8,99,29.93,4.0,Calm,Calm,-,N/A,Rain,Rain,0,2013-09-26 05:55:00
2:15 AM,60.8,60.4,99,29.93,4.0,Calm,Calm,-,N/A,,Drizzle,0,2013-09-26 06:15:00
2:35 AM,60.4,60.1,99,29.93,7.0,Calm,Calm,-,N/A,,Overcast,0,2013-09-26 06:35:00
2:55 AM,60.4,59.9,98,29.93,4.0,West,3.5,-,N/A,Rain,Rain,280,2013-09-26 06:55:00
3:15 AM,60.3,59.9,99,29.93,3.0,Calm,Calm,-,0.01,,Heavy Drizzle,0,2013-09-26 07:15:00
3:35 AM,60.1,59.7,99,29.93,4.0,Calm,Calm,-,0.03,,Drizzle,0,2013-09-26 07:35:00
3:55 AM,60.1,59.9,99,29.93,4.0,Calm,Calm,-,0.03,,Light Drizzle,0,2013-09-26 07:55:00
4:15 AM,60.1,59.9,99,29.93,5.0,Calm,Calm,-,N/A,,Overcast,0,2013-09-26 08:15:00
4:35 AM,60.1,59.9,99,29.92,5.0,Calm,Calm,-,N/A,,Overcast,0,2013-09-26 08:35:00
4:55 AM,60.1,59.9,99,29.92,7.0,Calm,Calm,-,N/A,,Overcast,0,2013-09-26 08:55:00
5:15 AM,60.3,59.9,99,29.93,7.0,Calm,Calm,-,N/A,,Overcast,0,2013-09-26 09:15:00
5:35 AM,60.3,60.1,99,29.93,5.0,Calm,Calm,-,N/A,,Overcast,0,2013-09-26 09:35:00
5:55 AM,60.3,59.9,99,29.93,7.0,Calm,Calm,-,N/A,,Overcast,0,2013-09-26 09:55:00
6:15 AM,60.3,59.9,99,29.93,7.0,Calm,Calm,-,N/A,Rain,Rain,0,2013-09-26 10:15:00
6:35 AM,60.3,60.1,99,29.94,5.0,Calm,Calm,-,0.01,,Overcast,0,2013-09-26 10:35:00
6:55 AM,60.3,60.1,99,29.95,5.0,Calm,Calm,-,0.01,,Overcast,0,2013-09-26 10:55:00
7:15 AM,60.3,60.1,99,29.96,5.0,Calm,Calm,-,N/A,,Overcast,0,2013-09-26 11:15:00
7:35 AM,60.3,60.1,99,29.97,5.0,Calm,Calm,-,N/A,,Overcast,0,2013-09-26 11:35:00
7:55 AM,60.4,60.1,99,29.97,7.0,Calm,Calm,-,N/A,,Overcast,0,2013-09-26 11:55:00
8:15 AM,60.8,60.1,97,29.98,7.0,Calm,Calm,-,N/A,,Overcast,0,2013-09-26 12:15:00
8:35 AM,61.0,60.6,99,29.99,7.0,Calm,Calm,-,N/A,,Overcast,0,2013-09-26 12:35:00
8:55 AM,61.7,60.4,96,29.99,10.0,Calm,Calm,-,N/A,,Overcast,0,2013-09-26 12:55:00
9:15 AM,61.7,60.3,95,30.00,10.0,Calm,Calm,-,N/A,,Overcast,0,2013-09-26 13:15:00
9:35 AM,62.1,59.7,92,30.00,10.0,Calm,Calm,-,N/A,,Overcast,0,2013-09-26 13:35:00
9:55 AM,62.8,61.0,94,30.01,10.0,Calm,Calm,-,N/A,,Overcast,0,2013-09-26 13:55:00
10:15 AM,63.0,60.6,92,30.01,10.0,Calm,Calm,-,N/A,,Overcast,0,2013-09-26 14:15:00
10:35 AM,64.8,61.7,90,30.01,10.0,Calm,Calm,-,N/A,,Mostly Cloudy,0,2013-09-26 14:35:00
10:55 AM,65.8,61.3,85,30.01,10.0,Calm,Calm,-,N/A,,Scattered Clouds,0,2013-09-26 14:55:00
11:15 AM,68.5,62.6,81,30.01,10.0,SW,3.5,-,N/A,,Scattered Clouds,230,2013-09-26 15:15:00
11:35 AM,69.4,62.1,77,30.01,10.0,Calm,Calm,-,N/A,,Mostly Cloudy,0,2013-09-26 15:35:00
11:55 AM,69.8,62.1,76,30.01,10.0,Calm,Calm,-,N/A,,Overcast,0,2013-09-26 15:55:00
12:15 PM,70.5,62.6,76,30.00,10.0,WSW,4.6,-,N/A,,Mostly Cloudy,240,2013-09-26 16:15:00
12:35 PM,72.5,61.5,68,30.00,10.0,Calm,Calm,-,N/A,,Mostly Cloudy,0,2013-09-26 16:35:00
12:55 PM,71.6,60.6,68,30.00,10.0,South,3.5,-,N/A,,Overcast,170,2013-09-26 16:55:00
1:15 PM,72.5,59.9,64,29.99,10.0,Calm,Calm,-,N/A,,Mostly Cloudy,0,2013-09-26 17:15:00
1:35 PM,74.5,61.7,64,29.99,10.0,ENE,5.8,-,N/A,,Mostly Cloudy,70,2013-09-26 17:35:00
1:55 PM,74.3,58.6,58,29.98,10.0,SE,3.5,-,N/A,,Scattered Clouds,140,2013-09-26 17:55:00
2:15 PM,72.3,59.0,63,29.98,10.0,NNE,6.9,-,N/A,,Mostly Cloudy,20,2013-09-26 18:15:00
2:35 PM,75.7,59.2,56,29.97,10.0,Calm,Calm,-,N/A,,Mostly Cloudy,0,2013-09-26 18:35:00
2:55 PM,75.4,58.8,56,29.97,10.0,North,8.1,-,N/A,,Scattered Clouds,10,2013-09-26 18:55:00
3:15 PM,75.7,59.5,57,29.97,10.0,NNE,6.9,-,N/A,,Mostly Cloudy,20,2013-09-26 19:15:00
3:35 PM,75.6,58.5,55,29.97,10.0,NE,9.2,-,N/A,,Scattered Clouds,40,2013-09-26 19:35:00
3:55 PM,75.4,58.5,56,29.97,10.0,NE,8.1,-,N/A,,Clear,40,2013-09-26 19:55:00
4:15 PM,75.4,58.5,56,29.97,10.0,North,6.9,-,N/A,,Clear,10,2013-09-26 20:15:00
4:35 PM,75.4,58.8,56,29.97,10.0,North,8.1,-,N/A,,Clear,10,2013-09-26 20:35:00
4:55 PM,75.0,59.0,57,29.98,10.0,NNE,8.1,17.3,N/A,,Clear,30,2013-09-26 20:55:00
5:15 PM,74.7,58.6,57,29.98,10.0,Calm,Calm,-,N/A,,Clear,0,2013-09-26 21:15:00
5:35 PM,73.9,59.0,59,29.98,10.0,North,8.1,-,N/A,,Clear,360,2013-09-26 21:35:00
5:55 PM,73.6,59.7,62,29.98,10.0,Calm,Calm,-,N/A,,Clear,0,2013-09-26 21:55:00
6:15 PM,72.9,59.5,63,29.99,10.0,Calm,Calm,-,N/A,,Clear,0,2013-09-26 22:15:00
6:35 PM,72.7,59.7,64,29.99,10.0,ESE,4.6,-,N/A,,Clear,110,2013-09-26 22:35:00
6:55 PM,71.2,58.6,64,30.00,10.0,NNE,3.5,-,N/A,,Clear,20,2013-09-26 22:55:00
7:15 PM,68.7,60.1,74,30.00,10.0,Calm,Calm,-,N/A,,Clear,0,2013-09-26 23:15:00
7:35 PM,65.5,60.8,85,30.00,10.0,Calm,Calm,-,N/A,,Clear,0,2013-09-26 23:35:00
7:55 PM,62.8,60.3,91,30.01,10.0,Calm,Calm,-,N/A,,Clear,0,2013-09-26 23:55:00
8:15 PM,61.3,59.5,94,30.02,10.0,Calm,Calm,-,N/A,,Clear,0,2013-09-27 00:15:00
8:35 PM,61.0,59.4,94,30.03,10.0,Calm,Calm,-,N/A,,Clear,0,2013-09-27 00:35:00
8:55 PM,60.3,58.8,95,30.03,10.0,Calm,Calm,-,N/A,,Clear,0,2013-09-27 00:55:00
9:15 PM,60.6,58.8,94,30.04,10.0,NNE,3.5,-,N/A,,Clear,30,2013-09-27 01:15:00
9:35 PM,59.5,58.3,96,30.05,10.0,Calm,Calm,-,N/A,,Clear,0,2013-09-27 01:35:00
9:55 PM,59.0,58.1,97,30.06,7.0,Calm,Calm,-,N/A,,Clear,0,2013-09-27 01:55:00
10:15 PM,58.5,57.6,97,30.06,7.0,Calm,Calm,-,N/A,,Clear,0,2013-09-27 02:15:00
10:35 PM,57.7,57.2,98,30.07,7.0,Calm,Calm,-,N/A,,Clear,0,2013-09-27 02:35:00
10:55 PM,58.1,57.4,97,30.07,7.0,Calm,Calm,-,N/A,,Clear,0,2013-09-27 02:55:00
11:15 PM,56.3,55.6,97,30.07,7.0,Calm,Calm,-,N/A,,Clear,0,2013-09-27 03:15:00
11:35 PM,56.5,56.3,99,30.08,5.0,Calm,Calm,-,N/A,,Clear,0,2013-09-27 03:35:00
11:55 PM,55.9,55.4,98,30.08,7.0,Calm,Calm,-,N/A,,Clear,0,2013-09-27 03:55:00